#timestamp,LO_Frequency,Hit 
1503626415.5,286046992.3,N
1503626435.4,286046990.6,P
1503626455.2,286046991.8,N
1503626475.1,286046996.4,N
1503626476.0,286046996.4,N
1503626495.8,286046996.1,N
1503626515.6,286046997.9,N
1503626535.4,286047004.0,N
1503626555.3,286047001.7,N
1503626575.1,286047000.1,N
1503626595.8,286047001.7,N
1503626615.7,286047002.1,N
1503626635.5,286047001.4,N
1503626655.3,286047003.4,N
1503626675.2,286047007.8,N
1503626695.9,286047007.2,N
1503626715.7,286047003.5,N
1503626735.6,286047003.0,N
1503626755.4,286047001.9,N
1503626775.2,286047001.6,N
1503626795.1,286047001.3,N
1503626796.0,286047001.3,N
1503626815.8,286047006.0,N
1503626835.6,286047005.8,N
1503626855.4,286047005.7,N
1503626875.3,286047006.9,N
1503626895.1,286047006.5,N
1503626915.8,286047008.5,N
1503626935.7,286047006.1,N
1503626955.5,286047006.1,N
1503626975.3,286047007.9,N
1503626995.2,286047010.5,N
1503627015.9,286047009.2,N
1503627035.7,286047005.3,N
1503627055.6,286047005.8,N
1503627075.4,286047005.7,N
1503627095.2,286047005.7,N
1503627115.1,286047007.6,N
1503627116.0,286047007.6,N
1503627135.8,286047006.5,N
1503627155.6,286047007.0,N
1503627175.5,286047006.6,N
1503627195.3,286047005.0,N
1503627215.1,286047003.8,N
1503627235.8,286047005.6,N
1503627255.7,286047005.6,N
1503627275.5,286047005.5,N
1503627295.3,286047005.9,N
1503627315.2,286047010.8,P
1503627335.0,286047003.9,N
1503627335.9,286047003.9,N
1503627355.7,286047003.3,N
1503627375.6,286047004.7,N
1503627395.4,286047001.9,N
1503627415.2,286047003.1,N
1503627435.1,286047002.2,N
1503627436.0,286047002.2,N
1503627455.8,286047002.5,N
1503627475.6,286047001.9,N
1503627495.5,286047004.2,N
1503627515.3,286047002.7,N
1503627535.1,286047001.9,N
1503627555.9,286047002.5,N
1503627575.7,286047002.1,N
1503627595.5,286047001.0,N
1503627615.4,286047001.8,N
1503627635.2,286047004.3,N
1503627655.0,286047007.5,P
1503627655.9,286047007.5,P
1503627675.8,286046998.7,N
1503627695.6,286046999.1,N
1503627715.4,286046996.7,N
1503627735.3,286046998.3,N
1503627755.1,286046999.2,N
1503627756.0,286046999.2,N
1503627775.8,286046998.7,N
1503627795.7,286046998.1,N
1503627815.5,286046998.6,N
1503627835.3,286046999.4,N
1503627855.1,286046999.2,N
1503627875.9,286046999.4,N
1503627895.7,286046999.4,N
1503627915.5,286046996.6,N
1503627935.4,286046994.1,N
1503627955.2,286046993.7,N
1503627975.0,286046996.6,N
1503627975.9,286046996.6,N
1503627995.8,286047000.1,N
1503628015.6,286047000.6,N
1503628035.4,286047004.1,N
1503628055.3,286047008.5,N
1503628075.1,286047006.6,N
1503628076.0,286047006.6,N
1503628095.8,286047004.2,N
1503628115.7,286047000.4,N
1503628135.5,286047002.6,N
1503628155.3,286047002.5,N
1503628175.1,286047000.2,N
1503628195.9,286047000.2,N
1503628215.7,286046999.6,N
1503628235.5,286046997.2,N
1503628255.4,286046999.1,N
1503628275.2,286046995.0,N
1503628295.0,286046996.0,N
1503628295.9,286046996.0,N
1503628315.8,286046995.6,N
1503628335.6,286046995.6,N
1503628355.4,286046995.0,N
1503628375.3,286046996.3,N
1503628395.1,286046995.2,N
1503628396.0,286046995.2,N
1503628415.8,286046994.6,N
1503628435.7,286046992.1,N
1503628455.5,286046992.5,N
1503628475.3,286046992.2,N
1503628495.2,286046992.7,N
1503628515.9,286046990.1,N
1503628535.7,286046990.2,N
1503628555.5,286046991.0,N
1503628575.4,286046992.4,N
1503628595.2,286046992.5,N
1503628615.0,286046990.1,N
1503628615.9,286046990.1,N
1503628635.8,286046992.0,N
1503628655.6,286046992.6,N
1503628675.4,286046993.1,N
1503628695.3,286046993.2,N
1503628715.1,286046991.8,N
1503628716.0,286046991.8,N
1503628735.8,286046992.5,N
1503628755.7,286046991.8,P
1503628775.5,286046998.8,N
1503628795.3,286046997.4,N
1503628815.2,286046993.5,N
1503628835.9,286046995.2,N
1503628855.7,286047001.0,N
1503628875.6,286047006.0,N
1503628895.4,286047003.4,N
1503628915.2,286047001.5,N
1503628935.1,286047001.7,N
1503628936.0,286047001.7,N
1503628955.8,286047001.8,N
1503628975.6,286047001.5,N
1503628995.5,286047004.4,N
1503629015.3,286046998.5,N
1503629035.1,286047004.1,N
1503629055.8,286047004.8,N
1503629075.7,286047007.4,N
1503629095.5,286047005.5,N
1503629115.3,286047003.8,N
1503629135.2,286047009.0,N
1503629155.9,286047008.8,N
1503629175.7,286047008.2,N
1503629195.6,286047008.2,N
1503629215.4,286047012.3,N
1503629235.2,286047009.3,N
1503629255.1,286047007.8,N
1503629256.0,286047007.8,N
1503629275.8,286047010.0,N
1503629295.6,286047012.2,N
1503629315.5,286047007.7,N
1503629335.3,286047010.7,N
1503629355.1,286047010.3,N
1503629375.9,286047013.5,N
1503629395.7,286047011.3,N
1503629415.5,286047012.6,P
1503629435.4,286047008.6,N
1503629455.2,286047009.2,P
1503629475.0,286047008.7,P
1503629475.9,286047008.7,P
1503629495.8,286046995.7,P
1503629515.6,286046993.6,N
1503629535.4,286046993.4,N
1503629555.3,286046996.0,N
1503629575.1,286046992.0,N
1503629576.0,286046992.0,N
1503629595.8,286046992.5,N
1503629615.7,286046990.5,N
1503629635.5,286046991.9,N
1503629655.3,286046992.9,N
1503629675.1,286046994.4,N
1503629695.9,286046994.1,N
1503629715.7,286046994.7,N
1503629735.5,286046992.5,N
1503629755.4,286046996.4,N
1503629775.2,286046997.2,N
1503629795.0,286046996.9,N
1503629795.9,286046996.9,N
1503629815.8,286046996.8,N
1503629835.6,286046996.9,N
1503629855.4,286046996.6,N
1503629875.3,286046996.9,N
1503629895.1,286046999.1,N
1503629896.0,286046999.1,N
1503629915.8,286046996.9,N
1503629935.7,286046994.9,N
1503629955.5,286046997.9,N
1503629975.3,286046997.0,N
1503629995.1,286046998.6,N
